Location: Calvatone
(45.1167°N, 10.4333°E)
Time: 08:20:58
(UTC+00:00)

METEOR M2 - Pass Details

Date: 10 December 2023
Orbit: 819 x 826 km, 98.4° (Epoch: 02 March)

Event Time Altitude Azimuth Distance (km) Brightness Sun altitude
Rises 04:57:36 0° 16° (NNE) 3,368 ? -18.2°
Reaches altitude 10° 05:00:00 10° 20° (NNE) 2,430 ? -17.8°
Maximum altitude 05:05:20 61° 101° (E) 928 ? -16.9°
Drops below altitude 10° 05:10:36 10° 182° (S) 2,408 ? -16.0°
Sets 05:12:58 0° 185° (S) 3,336 ? -15.6°
